TimeMDT,TemperatureF,Dew PointF,Humidity,Sea Level PressureIn,VisibilityMPH,Wind Direction,Wind SpeedMPH,Gust SpeedMPH,PrecipitationIn,Events,Conditions,WindDirDegrees,DateUTC
12:03 AM,30.2,30.2,100,30.18,1.2,Calm,Calm,-,N/A,,Clear,0,2013-10-24 06:03:00
12:14 AM,30.2,30.2,100,30.18,2.0,Calm,Calm,-,N/A,,Clear,0,2013-10-24 06:14:00
12:22 AM,32.0,30.2,93,30.18,5.0,Calm,Calm,-,N/A,,Clear,0,2013-10-24 06:22:00
12:36 AM,30.2,28.4,93,30.18,1.8,Calm,Calm,-,N/A,,Clear,0,2013-10-24 06:36:00
12:42 AM,32.0,30.2,93,30.18,0.8,Calm,Calm,-,N/A,,Clear,0,2013-10-24 06:42:00
12:48 AM,30.2,30.2,100,30.18,1.5,Calm,Calm,-,N/A,,Clear,0,2013-10-24 06:48:00
12:52 AM,33.8,32.0,93,30.18,3.0,Calm,Calm,-,N/A,,Clear,0,2013-10-24 06:52:00
12:55 AM,33.1,32.0,96,30.23,2.5,Calm,Calm,-,N/A,,Clear,0,2013-10-24 06:55:00
1:11 AM,30.2,30.2,100,30.18,5.0,Calm,Calm,-,N/A,,Clear,0,2013-10-24 07:11:00
1:21 AM,28.4,28.4,100,30.18,2.5,Calm,Calm,-,N/A,,Partly Cloudy,0,2013-10-24 07:21:00
1:24 AM,28.4,28.4,100,30.18,1.2,Calm,Calm,-,N/A,,Partly Cloudy,0,2013-10-24 07:24:00
1:26 AM,28.4,28.4,100,30.19,0.8,Calm,Calm,-,N/A,,Mist,0,2013-10-24 07:26:00
1:46 AM,28.4,28.4,100,30.19,0.2,Calm,Calm,-,N/A,Fog,Light Freezing Fog,0,2013-10-24 07:46:00
1:55 AM,28.9,27.0,92,30.24,0.5,Calm,Calm,-,N/A,Fog,Light Freezing Fog,0,2013-10-24 07:55:00
1:59 AM,28.4,28.4,100,30.19,1.5,Calm,Calm,-,N/A,,Overcast,0,2013-10-24 07:59:00
2:01 AM,30.2,28.4,93,30.19,3.0,Calm,Calm,-,N/A,,Overcast,0,2013-10-24 08:01:00
2:08 AM,30.2,28.4,93,30.19,1.8,Calm,Calm,-,N/A,,Overcast,0,2013-10-24 08:08:00
2:13 AM,28.4,26.6,93,30.19,0.8,WNW,3.5,-,N/A,,Mist,290,2013-10-24 08:13:00
2:39 AM,28.4,28.4,100,30.20,1.2,Calm,Calm,-,N/A,,Mostly Cloudy,0,2013-10-24 08:39:00
2:42 AM,28.4,26.6,93,30.20,2.0,Calm,Calm,-,N/A,,Mostly Cloudy,0,2013-10-24 08:42:00
2:50 AM,28.4,26.6,93,30.20,4.0,Calm,Calm,-,N/A,,Mostly Cloudy,0,2013-10-24 08:50:00
2:55 AM,28.9,28.0,96,30.24,2.0,ESE,3.5,-,N/A,,Mostly Cloudy,110,2013-10-24 08:55:00
2:58 AM,28.4,28.4,100,30.20,1.2,Calm,Calm,-,N/A,,Mostly Cloudy,0,2013-10-24 08:58:00
3:09 AM,30.2,28.4,93,30.20,0.8,Calm,Calm,-,N/A,,Mostly Cloudy,0,2013-10-24 09:09:00
3:22 AM,30.2,28.4,93,30.20,1.0,Calm,Calm,-,N/A,,Overcast,0,2013-10-24 09:22:00
3:35 AM,28.4,28.4,100,30.20,0.5,Calm,Calm,-,N/A,Fog,Light Freezing Fog,0,2013-10-24 09:35:00
3:55 AM,28.0,27.0,96,30.23,0.5,Calm,Calm,-,N/A,Fog,Light Freezing Fog,0,2013-10-24 09:55:00
4:29 AM,28.4,26.6,93,30.19,1.2,NW,3.5,-,N/A,,Partly Cloudy,310,2013-10-24 10:29:00
4:31 AM,28.4,26.6,93,30.19,2.0,NW,3.5,-,N/A,,Partly Cloudy,320,2013-10-24 10:31:00
4:43 AM,26.6,26.6,100,30.19,1.2,Calm,Calm,-,N/A,,Partly Cloudy,0,2013-10-24 10:43:00
4:55 AM,28.0,27.0,96,30.23,1.8,Calm,Calm,-,N/A,,Clear,0,2013-10-24 10:55:00
5:10 AM,26.6,26.6,100,30.19,1.2,Calm,Calm,-,N/A,,Partly Cloudy,0,2013-10-24 11:10:00
5:12 AM,26.6,26.6,100,30.19,0.8,Calm,Calm,-,N/A,,Mist,0,2013-10-24 11:12:00
5:35 AM,26.6,24.8,93,30.20,1.2,Calm,Calm,-,N/A,,Scattered Clouds,0,2013-10-24 11:35:00
5:37 AM,26.6,24.8,93,30.20,2.5,Calm,Calm,-,N/A,,Scattered Clouds,0,2013-10-24 11:37:00
5:44 AM,26.6,26.6,100,30.20,5.0,Calm,Calm,-,N/A,,Partly Cloudy,0,2013-10-24 11:44:00
5:53 AM,26.6,24.8,93,30.20,1.8,Calm,Calm,-,N/A,,Clear,0,2013-10-24 11:53:00
5:54 AM,26.1,25.0,96,30.25,1.8,Calm,Calm,-,N/A,,Clear,0,2013-10-24 11:54:00
6:12 AM,26.6,24.8,93,30.20,3.0,Calm,Calm,-,N/A,,Clear,0,2013-10-24 12:12:00
6:35 AM,26.6,24.8,93,30.20,1.8,Calm,Calm,-,N/A,,Clear,0,2013-10-24 12:35:00
6:46 AM,26.6,24.8,93,30.20,1.0,Calm,Calm,-,N/A,,Mist,0,2013-10-24 12:46:00
6:53 AM,26.6,24.8,93,30.20,1.5,Calm,Calm,-,N/A,,Scattered Clouds,0,2013-10-24 12:53:00
6:55 AM,26.1,25.0,96,30.27,1.5,Calm,Calm,-,N/A,,Scattered Clouds,0,2013-10-24 12:55:00
7:03 AM,26.6,24.8,93,30.20,2.5,Calm,Calm,-,N/A,,Partly Cloudy,0,2013-10-24 13:03:00
7:15 AM,28.4,26.6,93,30.19,1.2,WNW,6.9,-,N/A,,Mostly Cloudy,290,2013-10-24 13:15:00
7:19 AM,26.6,24.8,93,30.19,0.5,West,8.1,-,N/A,Fog,Light Freezing Fog,280,2013-10-24 13:19:00
7:55 AM,27.0,27.0,100,30.27,0.5,Calm,Calm,-,N/A,Fog,Light Freezing Fog,0,2013-10-24 13:55:00
8:40 AM,26.6,26.6,100,30.21,0.2,Calm,Calm,-,N/A,Fog,Light Freezing Fog,0,2013-10-24 14:40:00
8:55 AM,28.0,27.0,96,30.29,0.2,Calm,Calm,-,N/A,Fog,Light Freezing Fog,0,2013-10-24 14:55:00
9:08 AM,28.4,28.4,100,30.21,0.5,Calm,Calm,-,N/A,Fog,Light Freezing Fog,0,2013-10-24 15:08:00
9:11 AM,28.4,28.4,100,30.22,0.2,Calm,Calm,-,N/A,Fog,Light Freezing Fog,0,2013-10-24 15:11:00
9:22 AM,30.2,28.4,93,30.22,6.0,Calm,Calm,-,N/A,,Overcast,0,2013-10-24 15:22:00
9:29 AM,30.2,30.2,100,30.22,6.0,Calm,Calm,-,N/A,,Scattered Clouds,0,2013-10-24 15:29:00
9:55 AM,35.1,33.1,92,30.29,10.0,Calm,Calm,-,N/A,,Clear,0,2013-10-24 15:55:00
10:55 AM,45.0,37.9,76,30.27,10.0,NNE,5.8,-,N/A,,Clear,30,2013-10-24 16:55:00
11:55 AM,48.9,39.0,69,30.25,10.0,NNE,3.5,-,N/A,,Clear,20,2013-10-24 17:55:00
12:55 PM,53.1,37.9,57,30.23,10.0,NE,6.9,-,N/A,,Clear,40,2013-10-24 18:55:00
1:55 PM,55.0,37.9,53,30.21,10.0,Calm,Calm,-,N/A,,Clear,0,2013-10-24 19:55:00
2:55 PM,57.0,37.9,49,30.17,10.0,Calm,Calm,-,N/A,,Clear,0,2013-10-24 20:55:00
3:55 PM,57.9,37.9,47,30.16,10.0,SSE,4.6,-,N/A,,Clear,160,2013-10-24 21:55:00
4:55 PM,57.0,39.9,53,30.15,10.0,SSE,5.8,-,N/A,,Clear,160,2013-10-24 22:55:00
5:55 PM,53.1,39.9,61,30.16,10.0,South,4.6,-,N/A,,Clear,180,2013-10-24 23:55:00
6:55 PM,44.1,37.9,79,30.17,10.0,SSE,6.9,-,N/A,,Clear,160,2013-10-25 00:55:00
7:55 PM,39.0,37.0,93,30.20,10.0,Calm,Calm,-,N/A,,Clear,0,2013-10-25 01:55:00
8:55 PM,37.0,35.1,93,30.19,10.0,Calm,Calm,-,N/A,,Clear,0,2013-10-25 02:55:00
9:55 PM,34.0,33.1,96,30.19,9.0,NNE,3.5,-,N/A,,Clear,30,2013-10-25 03:55:00
10:53 PM,30.2,30.2,100,30.14,1.5,Calm,Calm,-,N/A,,Clear,0,2013-10-25 04:53:00
10:55 PM,30.9,30.0,96,30.20,1.0,Calm,Calm,-,N/A,,Clear,0,2013-10-25 04:55:00
11:05 PM,32.0,30.2,93,30.14,10.0,Calm,Calm,-,N/A,,Clear,0,2013-10-25 05:05:00
11:50 PM,30.2,30.2,100,30.15,1.0,North,4.6,-,N/A,,Mist,360,2013-10-25 05:50:00
11:55 PM,30.9,30.0,96,30.21,1.5,Calm,Calm,-,N/A,,Partly Cloudy,0,2013-10-25 05:55:00
11:58 PM,32.0,32.0,100,30.15,3.0,Calm,Calm,-,N/A,,Clear,0,2013-10-25 05:58:00